| time (UTC) | temp C | wind direction | speed KPH | gust KPH | rain 1hr cm | rain 24hr cm | rain mn cm | humidity % | barometer mb |
| 20260503230047 | -17 | 333 | 4.8 | 11.3 | 0.00 | 0.00 | 0.00 | 1007.0 | |
| 20260503225544 | -17 | 339 | 4.8 | 8.0 | 0.00 | 0.00 | 0.00 | 1006.9 | |
| 20260503225039 | -17 | 333 | 3.2 | 9.7 | 0.00 | 0.00 | 0.00 | 1006.9 | |
| 20260503224537 | -17 | 340 | 6.4 | 12.9 | 0.00 | 0.00 | 0.00 | 1007.1 | |
| 20260503224035 | -17 | 337 | 6.4 | 9.7 | 0.00 | 0.00 | 0.00 | 1007.0 | |
| 20260503223533 | -17 | 336 | 3.2 | 8.0 | 0.00 | 0.00 | 0.00 | 1007.1 | |
| 20260503223027 | -17 | 332 | 6.4 | 11.3 | 0.00 | 0.00 | 0.00 | 1007.2 | |
| 20260503222526 | -17 | 329 | 8.0 | 11.3 | 0.00 | 0.00 | 0.00 | 1007.3 | |
| 20260503222024 | -17 | 333 | 3.2 | 9.7 | 0.00 | 0.00 | 0.00 | 1007.2 | |
| 20260503221522 | -17 | 340 | 3.2 | 9.7 | 0.00 | 0.00 | 0.00 | 1007.3 | |
| 20260503221019 | -17 | 348 | 4.8 | 8.0 | 0.00 | 0.00 | 0.00 | 1007.3 | |
| 20260503220515 | -17 | 348 | 8.0 | 12.9 | 0.00 | 0.00 | 0.00 | 1007.4 | |
| 20260503220012 | -17 | 331 | 3.2 | 4.8 | 0.00 | 0.00 | 0.00 | 1007.3 | |
| 20260503215509 | -17 | 335 | 8.0 | 12.9 | 0.00 | 0.00 | 0.00 | 1007.4 | |
| 20260503215006 | -17 | 335 | 1.6 | 4.8 | 0.00 | 0.00 | 0.00 | 1007.4 | |
| 20260503214504 | -17 | 334 | 1.6 | 9.7 | 0.00 | 0.00 | 0.00 | 1007.4 | |
| 20260503214000 | -17 | 335 | 4.8 | 8.0 | 0.00 | 0.00 | 0.00 | 1007.7 | |
| 20260503213459 | -17 | 342 | 4.8 | 9.7 | 0.00 | 0.00 | 0.00 | 1007.5 | |
| 20260503212955 | -17 | 333 | 3.2 | 9.7 | 0.00 | 0.00 | 0.00 | 1007.4 | |
| 20260503212453 | -17 | 330 | 4.8 | 8.0 | 0.00 | 0.00 | 0.00 | 1007.5 | |
| 20260503211950 | -17 | 332 | 6.4 | 9.7 | 0.00 | 0.00 | 0.00 | 1007.4 | |
| 20260503211447 | -17 | 338 | 3.2 | 14.5 | 0.00 | 0.00 | 0.00 | 1007.6 | |
| 20260503210943 | -17 | 335 | 4.8 | 8.0 | 0.00 | 0.00 | 0.00 | 1007.6 | |
| 20260503210440 | -17 | 334 | 4.8 | 8.0 | 0.00 | 0.00 | 0.00 | 1007.6 | |
| 20260503205934 | -17 | 334 | 3.2 | 8.0 | 0.00 | 0.00 | 0.00 | 1007.7 | |
| 20260503205432 | -17 | 334 | 1.6 | 4.8 | 0.00 | 0.00 | 0.00 | 1007.7 | |
| 20260503204927 | -17 | 331 | 1.6 | 3.2 | 0.00 | 0.00 | 0.00 | 1007.8 | |
| 20260503204425 | -17 | 333 | 3.2 | 4.8 | 0.00 | 0.00 | 0.00 | 1007.8 | |
| 20260503203922 | -17 | 332 | 4.8 | 4.8 | 0.00 | 0.00 | 0.00 | 1008.0 | |
| 20260503203419 | -17 | 325 | 6.4 | 11.3 | 0.00 | 0.00 | 0.00 | 1007.9 | |
| 20260503202916 | -17 | 333 | 4.8 | 8.0 | 0.00 | 0.00 | 0.00 | 1008.0 | |
| 20260503202414 | -17 | 333 | 1.6 | 4.8 | 0.00 | 0.00 | 0.00 | 1007.8 | |
| 20260503201913 | -17 | 333 | 3.2 | 3.2 | 0.00 | 0.00 | 0.00 | 1008.0 | |
| 20260503201409 | -17 | 332 | 1.6 | 3.2 | 0.00 | 0.00 | 0.00 | 1008.0 | |
| 20260503200907 | -17 | 333 | 1.6 | 3.2 | 0.00 | 0.00 | 0.00 | 1007.8 | |
| 20260503200403 | -17 | 333 | 0.0 | 3.2 | 0.00 | 0.00 | 0.00 | 1008.0 | |
| 20260503195900 | -17 | 340 | 3.2 | 8.0 | 0.00 | 0.00 | 0.00 | 1008.2 | |
| 20260503195356 | -17 | 341 | 4.8 | 4.8 | 0.00 | 0.00 | 0.00 | 1008.2 | |
| 20260503194853 | -17 | 334 | 4.8 | 8.0 | 0.00 | 0.00 | 0.00 | 1008.2 | |
| 20260503194349 | -17 | 342 | 3.2 | 8.0 | 0.00 | 0.00 | 0.00 | 1008.4 | |
| 20260503193846 | -17 | 335 | 0.0 | 3.2 | 0.00 | 0.00 | 0.00 | 1008.3 | |
| 20260503193342 | -17 | 333 | 3.2 | 3.2 | 0.00 | 0.00 | 0.00 | 1008.6 | |
| 20260503192838 | -17 | 338 | 1.6 | 3.2 | 0.00 | 0.00 | 0.00 | 1008.7 | |
| 20260503192333 | -17 | 333 | 1.6 | 4.8 | 0.00 | 0.00 | 0.00 | 1008.4 | |
| 20260503191830 | -17 | 333 | 3.2 | 4.8 | 0.00 | 0.00 | 0.00 | 1008.3 | |
| 20260503191327 | -17 | 334 | 0.0 | 4.8 | 0.00 | 0.00 | 0.00 | 1008.5 | |
| 20260503190824 | -17 | 334 | 1.6 | 3.2 | 0.00 | 0.00 | 0.00 | 1008.4 | |
| 20260503190321 | -17 | 332 | 3.2 | 3.2 | 0.00 | 0.00 | 0.00 | 1008.4 | |
| 20260503185818 | -17 | 332 | 1.6 | 3.2 | 0.00 | 0.00 | 0.00 | 1008.7 | |
| 20260503185314 | -17 | 336 | 1.6 | 3.2 | 0.00 | 0.00 | 0.00 | 1008.7 | |
| 20260503184808 | -17 | 334 | 0.0 | 1.6 | 0.00 | 0.00 | 0.00 | 1008.6 | |
| 20260503184305 | -17 | 344 | 3.2 | 4.8 | 0.00 | 0.00 | 0.00 | 1008.3 | |
| 20260503183800 | -17 | 338 | 1.6 | 3.2 | 0.00 | 0.00 | 0.00 | 1008.6 | |
| 20260503183258 | -17 | 348 | 1.6 | 8.0 | 0.00 | 0.00 | 0.00 | 1008.6 | |
| 20260503182755 | -17 | 338 | 1.6 | 4.8 | 0.00 | 0.00 | 0.00 | 1008.6 | |
| 20260503182254 | -17 | 334 | 3.2 | 3.2 | 0.00 | 0.00 | 0.00 | 1008.7 | |
| 20260503181750 | -17 | 338 | 1.6 | 3.2 | 0.00 | 0.00 | 0.00 | 1008.6 | |
| 20260503181248 | -17 | 334 | 1.6 | 3.2 | 0.00 | 0.00 | 0.00 | 1008.9 | |
| 20260503180744 | -17 | 336 | 1.6 | 4.8 | 0.00 | 0.00 | 0.00 | 1008.7 | |
| 20260503180242 | -17 | 340 | 4.8 | 8.0 | 0.00 | 0.00 | 0.00 | 1008.8 | |
| 20260503175738 | -17 | 334 | 0.0 | 4.8 | 0.00 | 0.00 | 0.00 | 1008.7 | |
| 20260503175237 | -17 | 347 | 1.6 | 3.2 | 0.00 | 0.00 | 0.00 | 1008.5 | |
| 20260503174732 | -17 | 340 | 1.6 | 3.2 | 0.00 | 0.00 | 0.00 | 1008.7 | |
| 20260503174230 | -17 | 340 | 0.0 | 3.2 | 0.00 | 0.00 | 0.00 | 1008.9 | |
| 20260503173725 | -17 | 338 | 1.6 | 1.6 | 0.00 | 0.00 | 0.00 | 1008.8 | |
| 20260503173221 | -17 | 333 | 1.6 | 1.6 | 0.00 | 0.00 | 0.00 | 1008.8 | |
| 20260503172718 | -17 | 334 | 0.0 | 4.8 | 0.00 | 0.00 | 0.00 | 1008.7 | |
| 20260503172215 | -17 | 339 | 3.2 | 4.8 | 0.00 | 0.00 | 0.00 | 1008.7 | |
| 20260503171711 | -17 | 337 | 1.6 | 4.8 | 0.00 | 0.00 | 0.00 | 1008.6 | |
| 20260503171209 | -17 | 340 | 1.6 | 4.8 | 0.00 | 0.00 | 0.00 | 1008.7 | |
| 20260503170706 | -17 | 343 | 1.6 | 1.6 | 0.00 | 0.00 | 0.00 | 1008.8 | |
| 20260503170203 | -17 | 335 | 1.6 | 3.2 | 0.00 | 0.00 | 0.00 | 1008.5 | |
| 20260503160124 | -17 | 340 | 3.2 | 4.8 | 0.00 | 0.00 | 0.00 | 1008.8 | |
| 20260503150554 | -17 | 336 | 1.6 | 4.8 | 0.00 | 0.00 | 0.00 | 1008.9 | |
| 20260503130944 | -17 | 334 | 1.6 | 3.2 | 0.00 | 0.00 | 0.00 | 1008.2 | |
| 20260503130442 | -17 | 336 | 0.0 | 1.6 | 0.00 | 0.00 | 0.00 | 1008.3 | |
| 20260503110332 | -17 | 336 | 0.0 | 0.0 | 0.00 | 0.00 | 0.00 | 1008.9 | |
| 20260503100258 | -17 | 336 | 0.0 | 0.0 | 0.00 | 0.00 | 0.00 | 1009.3 | |
| 20260503090218 | -17 | 335 | 0.0 | 0.0 | 0.00 | 0.00 | 0.00 | 1009.9 | |
| 20260503081145 | -17 | 336 | 0.0 | 0.0 | 0.00 | 0.00 | 0.00 | 1010.1 | |
| 20260503080641 | -17 | 336 | 0.0 | 0.0 | 0.00 | 0.00 | 0.00 | 1010.2 | |
| 20260503080138 | -17 | 336 | 0.0 | 0.0 | 0.00 | 0.00 | 0.00 | 1010.2 | |
| 20260503072615 | -17 | 336 | 0.0 | 0.0 | 0.00 | 0.00 | 0.00 | 1010.2 | |
| 20260503072112 | -17 | 336 | 0.0 | 0.0 | 0.00 | 0.00 | 0.00 | 1010.3 | |
| 20260503071609 | -17 | 336 | 0.0 | 0.0 | 0.00 | 0.00 | 0.00 | 1010.3 | |
| 20260503071105 | -17 | 336 | 0.0 | 0.0 | 0.00 | 0.00 | 0.00 | 1010.4 | |
| 20260503070602 | -17 | 336 | 0.0 | 0.0 | 0.00 | 0.00 | 0.00 | 1010.6 | |
| 20260503055021 | -17 | 336 | 0.0 | 0.0 | 0.00 | 0.00 | 0.00 | 1011.0 | |
| 20260503054517 | -17 | 335 | 0.0 | 0.0 | 0.00 | 0.00 | 0.00 | 1010.9 | |
| 20260503054014 | -17 | 335 | 0.0 | 0.0 | 0.00 | 0.00 | 0.00 | 1011.0 | |
| 20260503053512 | -17 | 336 | 0.0 | 0.0 | 0.00 | 0.00 | 0.00 | 1010.9 | |
| 20260503053010 | -17 | 335 | 0.0 | 0.0 | 0.00 | 0.00 | 0.00 | 1011.1 | |
| 20260503052506 | -17 | 336 | 0.0 | 0.0 | 0.00 | 0.00 | 0.00 | 1010.9 | |
| 20260503052002 | -17 | 336 | 0.0 | 0.0 | 0.00 | 0.00 | 0.00 | 1011.0 | |
| 20260503051458 | -17 | 337 | 0.0 | 0.0 | 0.00 | 0.00 | 0.00 | 1010.8 | |
| 20260503050956 | -17 | 335 | 0.0 | 0.0 | 0.00 | 0.00 | 0.00 | 1010.7 | |
| 20260503050451 | -17 | 335 | 0.0 | 0.0 | 0.00 | 0.00 | 0.00 | 1010.8 | |
| 20260503045949 | -17 | 335 | 0.0 | 0.0 | 0.00 | 0.00 | 0.00 | 1010.9 | |
| 20260503045446 | -17 | 335 | 0.0 | 1.6 | 0.00 | 0.00 | 0.00 | 1010.8 | |
| 20260503044943 | -17 | 336 | 0.0 | 0.0 | 0.00 | 0.00 | 0.00 | 1010.9 | |
| 20260503044440 | -17 | 335 | 0.0 | 4.8 | 0.00 | 0.00 | 0.00 | 1011.0 | |
| 20260503043938 | -17 | 335 | 0.0 | 3.2 | 0.00 | 0.00 | 0.00 | 1010.7 | |
| 20260503043433 | -17 | 336 | 0.0 | 0.0 | 0.00 | 0.00 | 0.00 | 1010.7 | |
| 20260503042930 | -17 | 344 | 1.6 | 1.6 | 0.00 | 0.00 | 0.00 | 1010.5 | |
| 20260503042427 | -17 | 334 | 0.0 | 0.0 | 0.00 | 0.00 | 0.00 | 1010.5 | |
| 20260503041924 | -17 | 336 | 0.0 | 1.6 | 0.00 | 0.00 | 0.00 | 1010.5 | |
| 20260503041420 | -17 | 335 | 0.0 | 1.6 | 0.00 | 0.00 | 0.00 | 1010.5 | |
| 20260503040918 | -17 | 334 | 0.0 | 1.6 | 0.00 | 0.00 | 0.00 | 1010.5 | |
| 20260503040415 | -17 | 340 | 1.6 | 3.2 | 0.00 | 0.00 | 0.00 | 1010.2 | |
| 20260503035912 | -17 | 335 | 0.0 | 3.2 | 0.00 | 0.00 | 0.00 | 1010.2 | |
| 20260503035409 | -17 | 339 | 0.0 | 3.2 | 0.00 | 0.00 | 0.00 | 1010.1 | |
| 20260503034906 | -17 | 335 | 0.0 | 1.6 | 0.00 | 0.00 | 0.00 | 1010.0 | |
| 20260503034404 | -17 | 338 | 0.0 | 3.2 | 0.00 | 0.00 | 0.00 | 1009.9 | |
| 20260503033901 | -17 | 346 | 0.0 | 3.2 | 0.00 | 0.00 | 0.00 | 1009.9 | |
| 20260503033358 | -17 | 330 | 0.0 | 3.2 | 0.00 | 0.00 | 0.00 | 1010.0 | |
| 20260503032856 | -17 | 334 | 1.6 | 3.2 | 0.00 | 0.00 | 0.00 | 1009.9 | |
| 20260503032355 | -17 | 323 | 1.6 | 4.8 | 0.00 | 0.00 | 0.00 | 1010.0 | |
| 20260503031852 | -17 | 336 | 0.0 | 4.8 | 0.00 | 0.00 | 0.00 | 1009.9 | |
| 20260503031349 | -17 | 335 | 0.0 | 3.2 | 0.00 | 0.00 | 0.00 | 1009.8 | |
| 20260503030845 | -17 | 342 | 1.6 | 8.0 | 0.00 | 0.00 | 0.00 | 1009.9 | |
| 20260503030342 | -17 | 330 | 1.6 | 4.8 | 0.00 | 0.00 | 0.00 | 1009.8 | |
| 20260503025839 | -17 | 333 | 0.0 | 3.2 | 0.00 | 0.00 | 0.00 | 1009.8 | |
| 20260503025336 | -17 | 334 | 0.0 | 1.6 | 0.00 | 0.00 | 0.00 | 1009.9 | |
| 20260503024833 | -17 | 338 | 0.0 | 1.6 | 0.00 | 0.00 | 0.00 | 1009.9 | |
| 20260503024330 | -17 | 334 | 0.0 | 1.6 | 0.00 | 0.00 | 0.00 | 1009.8 | |
| 20260503023827 | -17 | 336 | 0.0 | 0.0 | 0.00 | 0.00 | 0.00 | 1009.8 | |
| 20260503023324 | -17 | 335 | 0.0 | 3.2 | 0.00 | 0.00 | 0.00 | 1010.0 | |
| 20260503022821 | -17 | 335 | 0.0 | 3.2 | 0.00 | 0.00 | 0.00 | 1010.0 | |
| 20260503022320 | -17 | 334 | 0.0 | 1.6 | 0.00 | 0.00 | 0.00 | 1009.8 | |
| 20260503021817 | -17 | 335 | 0.0 | 1.6 | 0.00 | 0.00 | 0.00 | 1009.9 | |
| 20260503021313 | -17 | 335 | 1.6 | 3.2 | 0.00 | 0.00 | 0.00 | 1010.0 | |
| 20260503020811 | -17 | 335 | 0.0 | 3.2 | 0.00 | 0.00 | 0.00 | 1010.1 | |
| 20260503020309 | -17 | 335 | 1.6 | 3.2 | 0.00 | 0.00 | 0.00 | 1010.1 | |
| 20260503015804 | -17 | 338 | 1.6 | 4.8 | 0.00 | 0.00 | 0.00 | 1010.1 | |
| 20260503015305 | -17 | 336 | 1.6 | 8.0 | 0.00 | 0.00 | 0.00 | 1010.0 | |
| 20260503014757 | -17 | 335 | 3.2 | 8.0 | 0.00 | 0.00 | 0.00 | 1010.3 | |
| 20260503014255 | -17 | 335 | 1.6 | 4.8 | 0.00 | 0.00 | 0.00 | 1010.1 | |
| 20260503013752 | -17 | 334 | 1.6 | 4.8 | 0.00 | 0.00 | 0.00 | 1009.9 | |
| 20260503013250 | -17 | 342 | 1.6 | 4.8 | 0.00 | 0.00 | 0.00 | 1010.0 | |
| 20260503012747 | -17 | 330 | 1.6 | 8.0 | 0.00 | 0.00 | 0.00 | 1009.9 | |
| 20260503012244 | -17 | 350 | 3.2 | 9.7 | 0.00 | 0.00 | 0.00 | 1010.1 | |
| 20260503011741 | -17 | 334 | 3.2 | 4.8 | 0.00 | 0.00 | 0.00 | 1010.1 | |
| 20260503011238 | -17 | 335 | 3.2 | 8.0 | 0.00 | 0.00 | 0.00 | 1010.3 | |
| 20260503010734 | -17 | 334 | 1.6 | 4.8 | 0.00 | 0.00 | 0.00 | 1010.2 | |
| 20260503010231 | -17 | 335 | 1.6 | 4.8 | 0.00 | 0.00 | 0.00 | 1009.9 | |
| 20260503005729 | -17 | 335 | 3.2 | 8.0 | 0.00 | 0.00 | 0.00 | 1010.1 | |
| 20260503005226 | -17 | 334 | 1.6 | 3.2 | 0.00 | 0.00 | 0.00 | 1010.1 | |
| 20260503004721 | -17 | 336 | 4.8 | 8.0 | 0.00 | 0.00 | 0.00 | 1010.2 | |
| 20260503004220 | -17 | 334 | 3.2 | 12.9 | 0.00 | 0.00 | 0.00 | 1010.2 | |
| 20260503003717 | -17 | 325 | 4.8 | 8.0 | 0.00 | 0.00 | 0.00 | 1010.4 | |
| 20260503003214 | -17 | 331 | 4.8 | 9.7 | 0.00 | 0.00 | 0.00 | 1010.3 | |
| 20260503002711 | -17 | 333 | 1.6 | 3.2 | 0.00 | 0.00 | 0.00 | 1010.4 | |
| 20260503002208 | -17 | 347 | 1.6 | 4.8 | 0.00 | 0.00 | 0.00 | 1010.5 | |
| 20260503001703 | -17 | 336 | 1.6 | 4.8 | 0.00 | 0.00 | 0.00 | 1010.6 | |
| 20260503001200 | -17 | 325 | 4.8 | 11.3 | 0.00 | 0.00 | 0.00 | 1010.4 | |
| 20260503000658 | -17 | 331 | 1.6 | 4.8 | 0.00 | 0.00 | 0.00 | 1010.4 | |
| 20260503000155 | -17 | 335 | 1.6 | 3.2 | 0.00 | 0.00 | 0.00 | 1010.5 | |
| 20260502235652 | -17 | 332 | 3.2 | 9.7 | 0.00 | 0.00 | 0.00 | 1010.4 | |
| 20260502235150 | -17 | 358 | 3.2 | 8.0 | 0.00 | 0.00 | 0.00 | 1010.3 | |
| 20260502234646 | -17 | 334 | 3.2 | 9.7 | 0.00 | 0.00 | 0.00 | 1010.4 | |
| 20260502234144 | -17 | 334 | 4.8 | 11.3 | 0.00 | 0.00 | 0.00 | 1010.5 | |
| 20260502233639 | -17 | 333 | 1.6 | 3.2 | 0.00 | 0.00 | 0.00 | 1010.3 | |
| 20260502233136 | -17 | 331 | 6.4 | 14.5 | 0.00 | 0.00 | 0.00 | 1010.5 | |
| 20260502232632 | -17 | 332 | 3.2 | 11.3 | 0.00 | 0.00 | 0.00 | 1010.5 | |
| 20260502232130 | -17 | 336 | 6.4 | 11.3 | 0.00 | 0.00 | 0.00 | 1010.7 | |
| 20260502231626 | -17 | 329 | 4.8 | 8.0 | 0.00 | 0.00 | 0.00 | 1011.0 | |
| 20260502231124 | -17 | 333 | 1.6 | 9.7 | 0.00 | 0.00 | 0.00 | 1011.0 | |
| 20260502230622 | -17 | 334 | 1.6 | 9.7 | 0.00 | 0.00 | 0.00 | 1011.2 |